Home > Weather > Manchester > Past weeks

Flag for United Kingdom Past Weather in Manchester, England, United Kingdom — Yesterday and Last 2 Weeks

Now
54 °F

Mostly cloudy.


Feels Like: 50 °F
Forecast: 49 / 63 °F
Wind: 10 mph from Northeast

Location: Manchester Airport

Current Time: Jun 1, 2016 at 2:49:09 AM

Latest Report: Jun 1, 2016 at 1:50 AM


Visibility: N/A

Pressure: 30.24 "Hg

Humidity: 82%

Dew Point: 48 °F

Location of ManchesterLocation

Past Weather in Manchester — Graph

°F

Manchester Temperature Yesterday

Maximum temperature yesterday: 66 °F (at 1:50 PM)
Minimum temperature yesterday: 50 °F (at 4:50 AM)
Average temperature yesterday: 59 °F

High & Low Weather Summary for the Past Weeks

 TemperatureHumidityPressure
High68 °F (May 30, 4:50 PM)100% (May 22, 2:50 AM)30.24 "Hg (May 22, 2:50 AM)
Low37 °F (May 17, 2:20 AM)40% (May 24, 1:50 PM)29.56 "Hg (May 18, 7:20 AM)
Average54 °F76%29.96 "Hg
* Reported May 17 1:20 AM — Jun 1 1:50 AM, Manchester, Weather by CustomWeather, © 2016

Note: Actual official high and low records may vary slightly from our data, if they occured in-between our weather recording intervals... More about our weather records

Advertising

Manchester Weather History for the Previous 24 Hours

Scroll right to see more
 ConditionsComfort  
Time TempWeatherWind HumidityBarometerVisibility
1:50 AM
Wed, Jun 1
54 °FMostly cloudy.10 mph82%30.24 "HgN/A
1:20 AM54 °FOvercast.14 mph82%30.24 "HgN/A
12:50 AM55 °FPassing clouds.12 mph77%30.24 "HgN/A
12:20 AM55 °FOvercast.9 mph77%30.24 "HgN/A
11:50 PM
Tue, May 31
55 °FOvercast.13 mph77%30.24 "HgN/A
11:20 PM55 °FOvercast.15 mph82%30.24 "HgN/A
10:50 PM57 °FOvercast.10 mph77%30.24 "HgN/A
10:20 PM57 °FPartly sunny.14 mph72%30.24 "HgN/A
9:50 PM57 °FPartly sunny.13 mph72%30.21 "HgN/A
9:20 PM59 °FPartly sunny.15 mph72%30.21 "HgN/A
8:50 PM59 °FPartly sunny.15 mph68%30.21 "HgN/A
8:20 PM61 °FPartly sunny.14 mph63%30.18 "HgN/A
7:50 PM61 °FScattered clouds.14 mph63%30.18 "HgN/A
7:20 PM63 °FPassing clouds.15 mph59%30.18 "HgN/A
6:50 PM63 °FPassing clouds.14 mph64%30.18 "HgN/A
6:20 PM63 °FPassing clouds.16 mph59%30.15 "HgN/A
5:50 PM64 °FPassing clouds.15 mph60%30.15 "HgN/A
5:20 PM63 °FPartly sunny.15 mph64%30.15 "HgN/A
4:50 PM63 °FScattered clouds.16 mph59%30.15 "HgN/A
4:20 PM63 °FScattered clouds.16 mph59%30.15 "HgN/A
3:50 PM63 °FScattered clouds.17 mph59%30.15 "HgN/A
3:20 PM63 °FScattered clouds.17 mph59%30.15 "HgN/A
2:50 PM64 °FPassing clouds.17 mph60%30.15 "HgN/A
2:20 PM64 °FScattered clouds.18 mph60%30.15 "HgN/A
1:50 PM66 °FPassing clouds.18 mph56%30.15 "HgN/A
1:20 PM64 °FPassing clouds.20 mph56%30.15 "HgN/A
12:50 PM64 °FPassing clouds.18 mph56%30.15 "HgN/A
12:20 PM64 °FPassing clouds.18 mph56%30.15 "HgN/A
11:50 AM64 °FPassing clouds.16 mph56%30.15 "HgN/A
11:20 AM64 °FPassing clouds.16 mph56%30.15 "HgN/A
10:50 AM63 °FPassing clouds.18 mph56%30.15 "HgN/A
10:20 AM63 °FPassing clouds.18 mph52%30.15 "HgN/A
9:50 AM61 °FPassing clouds.18 mph55%30.15 "HgN/A
9:20 AM61 °FPassing clouds.14 mph55%30.15 "HgN/A
8:50 AM59 °FPassing clouds.15 mph59%30.15 "HgN/A
8:20 AM57 °FPassing clouds.15 mph63%30.15 "HgN/A
7:50 AM55 °FPassing clouds.15 mph67%30.15 "HgN/A
7:20 AM55 °FPassing clouds.15 mph67%30.12 "HgN/A
6:50 AM54 °FPassing clouds.12 mph67%30.12 "HgN/A
6:20 AM54 °FPassing clouds.8 mph67%30.12 "HgN/A
5:50 AM52 °FSunny.8 mph72%30.12 "Hg10 mi
5:20 AM52 °FClear.7 mph67%30.12 "Hg10 mi
4:50 AM50 °FPassing clouds.7 mph71%30.12 "HgN/A
4:20 AM52 °FClear.10 mph67%30.12 "Hg10 mi
3:50 AM52 °FClear.10 mph67%30.12 "Hg10 mi
3:20 AM52 °FClear.9 mph72%30.12 "Hg10 mi
2:50 AM52 °FClear.10 mph72%30.12 "Hg10 mi
2:20 AM52 °FClear.10 mph72%30.12 "Hg10 mi
Weather by CustomWeather, © 2016

See weather overviewHow to use our weather pages